EW7425 Weather Reports


time (UTC)temp
C
wind
direction
speed
KPH
gust
KPH
rain 1hr
cm
rain 24hr
cm
rain mn
cm
humidity
%
barometer
mb
20260505153003 18 174 16.1 37.0 0.00 0.00 0.00 62 1006.8
20260505152503 18 178 17.7 37.0 0.00 0.00 0.00 61 1006.9
20260505152003 17 181 17.7 38.6 0.00 0.00 0.00 61 1007.0
20260505151503 18 170 19.3 38.6 0.00 0.00 0.00 61 1007.0
20260505151003 18 176 16.1 32.2 0.00 0.00 0.00 62 1007.0
20260505150503 17 179 19.3 38.6 0.00 0.00 0.00 61 1006.8
20260505140503 17 182 14.5 32.2 0.00 0.00 0.00 58 1007.0
20260505125024 15 190 12.9 30.6 0.00 0.00 0.00 65 1007.5
20260505124503 15 190 14.5 30.6 0.00 0.00 0.00 65 1007.5
20260505124025 15 192 11.3 22.5 0.00 0.00 0.00 67 1007.6
20260505123503 14 191 11.3 22.5 0.00 0.00 0.00 67 1007.5
20260505123003 14 191 11.3 22.5 0.00 0.00 0.00 69 1007.6
20260505122503 13 193 9.7 24.1 0.00 0.00 0.00 69 1007.6
20260505122024 13 198 8.0 24.1 0.00 0.00 0.00 70 1007.6
20260505121503 13 196 8.0 19.3 0.00 0.00 0.00 70 1007.6
20260505121003 13 188 9.7 22.5 0.00 0.00 0.00 71 1007.7
20260505120503 12 187 12.9 22.5 0.00 0.00 0.00 71 1007.6
20260505120024 12 191 11.3 22.5 0.00 0.00 0.00 71 1007.8
20260505115503 12 195 9.7 20.9 0.00 0.00 0.00 71 1007.8
20260505115003 12 188 8.0 19.3 0.00 0.00 0.00 72 1007.9
20260505114503 12 187 8.0 16.1 0.00 0.00 0.00 72 1007.9
20260505114003 12 191 8.0 19.3 0.00 0.00 0.00 72 1007.9
20260505113503 12 189 9.7 19.3 0.00 0.00 0.00 73 1007.9
20260505113003 12 185 11.3 20.9 0.00 0.00 0.00 73 1007.8
20260505112503 11 182 11.3 25.7 0.00 0.00 0.00 73 1007.8
20260505112003 11 183 11.3 25.7 0.00 0.00 0.00 74 1007.6
20260505111524 11 187 9.7 17.7 0.00 0.00 0.00 74 1007.7
20260505111003 11 188 9.7 19.3 0.00 0.00 0.00 74 1007.7
20260505110503 11 192 8.0 19.3 0.00 0.00 0.00 75 1007.7
20260505102003 9 183 8.0 14.5 0.00 0.00 0.00 79 1007.7
20260505101503 9 180 8.0 14.5 0.00 0.00 0.00 79 1007.7
20260505101003 8 179 8.0 14.5 0.00 0.00 0.00 79 1007.7
20260505100503 8 180 8.0 14.5 0.00 0.00 0.00 79 1007.6
20260505100024 8 184 6.4 11.3 0.00 0.00 0.00 79 1007.7
20260505095524 8 190 6.4 11.3 0.00 0.00 0.00 80 1007.6
20260505095003 8 189 6.4 12.9 0.00 0.00 0.00 80 1007.7
20260505094503 8 185 6.4 12.9 0.00 0.00 0.00 80 1007.5
20260505094003 8 185 6.4 9.7 0.00 0.00 0.00 80 1007.6
20260505093503 8 183 6.4 16.1 0.00 0.00 0.00 80 1007.5
20260505093024 8 185 6.4 16.1 0.00 0.00 0.00 80 1007.4
20260505092503 8 187 6.4 11.3 0.00 0.00 0.00 80 1007.4
20260505092024 8 186 6.4 11.3 0.00 0.00 0.00 80 1007.4
20260505091503 8 186 6.4 11.3 0.00 0.00 0.00 79 1007.4
20260505091003 8 185 6.4 11.3 0.00 0.00 0.00 79 1007.4
20260505090503 8 184 6.4 9.7 0.00 0.00 0.00 80 1007.5
20260505090024 8 187 6.4 12.9 0.00 0.00 0.00 80 1007.5
20260505085503 8 188 6.4 12.9 0.00 0.00 0.00 80 1007.5
20260505085003 8 187 4.8 11.3 0.00 0.00 0.00 80 1007.6
20260505084503 8 188 6.4 11.3 0.00 0.00 0.00 80 1007.6
20260505084003 8 188 6.4 11.3 0.00 0.00 0.00 80 1007.6
20260505083503 8 189 6.4 11.3 0.00 0.00 0.00 80 1007.6
20260505083003 8 190 6.4 11.3 0.00 0.00 0.00 80 1007.7
20260505082503 8 191 4.8 11.3 0.00 0.00 0.00 81 1007.7
20260505082024 8 192 4.8 12.9 0.00 0.00 0.00 81 1007.6
20260505081503 8 191 6.4 12.9 0.00 0.00 0.00 81 1007.6
20260505081003 8 188 6.4 12.9 0.00 0.00 0.00 82 1007.6
20260505080503 8 185 6.4 11.3 0.00 0.00 0.00 82 1007.7
20260505080003 8 186 6.4 11.3 0.00 0.00 0.00 82 1007.6
20260505075524 8 184 6.4 11.3 0.00 0.00 0.00 82 1007.6
20260505075003 8 185 4.8 9.7 0.00 0.00 0.00 82 1007.6
20260505074503 8 188 6.4 9.7 0.00 0.00 0.00 82 1007.6
20260505074024 8 188 6.4 11.3 0.00 0.00 0.00 81 1007.6
20260505073503 8 181 6.4 11.3 0.00 0.00 0.00 81 1007.6
20260505073003 8 178 8.0 12.9 0.00 0.00 0.00 81 1007.6
20260505072524 8 179 6.4 12.9 0.00 0.00 0.00 81 1007.6
20260505072003 8 186 6.4 11.3 0.00 0.00 0.00 81 1007.7
20260505071503 8 192 4.8 11.3 0.00 0.00 0.00 81 1007.6
20260505071003 8 191 4.8 11.3 0.00 0.00 0.00 81 1007.7
20260505070503 8 187 4.8 12.9 0.00 0.00 0.00 81 1007.6
20260505070004 8 192 4.8 14.5 0.00 0.00 0.00 81 1007.6
20260505065503 8 195 4.8 14.5 0.00 0.00 0.00 81 1007.6
20260505065003 8 189 6.4 12.9 0.00 0.00 0.00 81 1007.5
20260505064524 8 188 6.4 16.1 0.00 0.00 0.00 81 1007.5
20260505064003 8 189 6.4 16.1 0.00 0.00 0.00 81 1007.5
20260505063503 8 187 6.4 12.9 0.00 0.00 0.00 81 1007.5
20260505063003 8 186 6.4 12.9 0.00 0.00 0.00 81 1007.5
20260505062503 8 188 6.4 12.9 0.00 0.00 0.00 81 1007.4
20260505062003 8 188 6.4 12.9 0.00 0.00 0.00 82 1007.6
20260505061503 8 189 6.4 12.9 0.00 0.00 0.00 82 1007.5
20260505061003 8 190 4.8 12.9 0.00 0.00 0.00 82 1007.5
20260505060503 8 184 4.8 8.0 0.00 0.00 0.00 82 1007.5
20260505060003 8 182 3.2 9.7 0.00 0.00 0.00 82 1007.4
20260505055524 8 188 4.8 9.7 0.00 0.00 0.00 82 1007.6
20260505055003 7 212 3.2 9.7 0.00 0.00 0.00 83 1007.5
20260505054503 7 225 3.2 8.0 0.00 0.00 0.00 83 1007.6
20260505054003 7 199 3.2 8.0 0.00 0.00 0.00 82 1007.7
20260505053524 7 169 3.2 6.4 0.00 0.00 0.00 82 1007.6
20260505053003 7 169 3.2 6.4 0.00 0.00 0.00 82 1007.6
20260505052524 7 169 1.6 6.4 0.00 0.00 0.00 81 1007.5
20260505052003 7 169 1.6 6.4 0.00 0.00 0.00 81 1007.4
20260505051503 8 167 3.2 9.7 0.00 0.00 0.00 81 1007.4
20260505051003 8 166 3.2 9.7 0.00 0.00 0.00 81 1007.4
20260505050503 8 165 1.6 6.4 0.00 0.00 0.00 81 1007.4
20260505041503 8 162 0.0 6.4 0.00 0.00 0.00 80 1007.2
20260505041024 8 162 0.0 3.2 0.00 0.00 0.00 80 1007.3
20260505040503 8 162 1.6 6.4 0.00 0.00 0.00 79 1007.3
20260505040004 8 162 3.2 8.0 0.00 0.00 0.00 79 1007.3
20260505035503 8 161 3.2 8.0 0.00 0.00 0.00 78 1007.2
20260505035003 8 160 0.0 6.4 0.00 0.00 0.00 78 1007.3
20260505034503 8 0 0.0 0.0 0.00 0.00 0.00 77 1007.3
20260505034003 9 0 0.0 0.0 0.00 0.00 0.00 77 1007.3
20260505033524 9 0 0.0 0.0 0.00 0.00 0.00 77 1007.4
20260505033003 9 0 0.0 0.0 0.00 0.00 0.00 77 1007.2
20260505032503 9 0 0.0 0.0 0.00 0.00 0.00 77 1007.2
20260505032003 9 0 0.0 0.0 0.00 0.00 0.00 77 1007.2
20260505031503 9 0 0.0 0.0 0.00 0.00 0.00 76 1007.2
20260505031003 9 0 0.0 0.0 0.00 0.00 0.00 76 1007.3
20260505030503 9 0 0.0 0.0 0.00 0.00 0.00 75 1007.2
20260505030003 10 160 0.0 3.2 0.00 0.00 0.00 75 1007.2
20260505025503 10 160 0.0 3.2 0.00 0.00 0.00 74 1007.4
20260505025004 10 160 1.6 6.4 0.00 0.00 0.00 74 1007.5
20260505024503 10 160 3.2 8.0 0.00 0.00 0.00 74 1007.4
20260505024003 10 160 4.8 8.0 0.00 0.00 0.00 74 1007.4
20260505023503 10 155 3.2 9.7 0.00 0.00 0.00 73 1007.5
20260505023003 10 148 3.2 9.7 0.00 0.00 0.00 73 1007.5
20260505022524 11 146 3.2 6.4 0.00 0.00 0.00 73 1007.5
20260505022024 11 146 3.2 6.4 0.00 0.00 0.00 73 1007.5
20260505021503 11 146 3.2 6.4 0.00 0.00 0.00 73 1007.6
20260505021003 11 146 3.2 6.4 0.00 0.00 0.00 73 1007.5
20260505020503 11 146 3.2 6.4 0.00 0.00 0.00 74 1007.5
20260505020003 11 146 3.2 4.8 0.00 0.00 0.00 74 1007.6
20260505015503 11 146 3.2 4.8 0.00 0.00 0.00 74 1007.5
20260505015003 11 146 3.2 4.8 0.00 0.00 0.00 74 1007.5
20260505014503 11 146 3.2 4.8 0.00 0.00 0.00 73 1007.5
20260505014003 11 146 1.6 4.8 0.00 0.00 0.00 73 1007.4
20260505013503 11 146 1.6 4.8 0.00 0.00 0.00 73 1007.3
20260505013003 11 146 1.6 4.8 0.00 0.00 0.00 73 1007.4
20260505012524 11 146 3.2 4.8 0.00 0.00 0.00 72 1007.4
20260505012003 12 146 3.2 8.0 0.00 0.00 0.00 72 1007.3
20260505011524 12 156 4.8 11.3 0.00 0.00 0.00 72 1007.3
20260505011003 11 166 4.8 11.3 0.00 0.00 0.00 72 1007.3
20260505010503 11 173 3.2 8.0 0.00 0.00 0.00 72 1007.2
20260505010003 11 189 1.6 8.0 0.00 0.00 0.00 73 1007.2
20260505005503 11 0 0.0 0.0 0.00 0.00 0.00 72 1006.9
20260505005004 11 0 0.0 0.0 0.00 0.00 0.00 72 1006.8
20260505004503 11 0 0.0 0.0 0.00 0.00 0.00 71 1006.7
20260505004003 11 0 0.0 0.0 0.00 0.00 0.00 70 1006.5
20260505003503 12 0 0.0 0.0 0.00 0.00 0.00 69 1006.4
20260505003003 12 0 0.0 0.0 0.00 0.00 0.00 69 1006.4
20260505002503 12 0 0.0 0.0 0.00 0.00 0.00 69 1006.3
20260505002024 12 0 0.0 0.0 0.00 0.00 0.00 68 1006.2
20260505001524 12 0 0.0 0.0 0.00 0.00 0.00 68 1006.3
20260505001003 12 250 1.6 4.8 0.00 0.00 0.00 67 1006.3
20260505000503 13 255 1.6 4.8 0.00 0.00 0.00 66 1006.3
20260505000003 13 263 0.0 4.8 0.00 0.00 0.00 66 1006.1
20260504235503 13 0 0.0 0.0 0.00 0.00 0.00 66 1006.1
20260504235003 13 0 0.0 0.0 0.00 0.00 0.00 65 1006.1
20260504234503 13 0 0.0 0.0 0.00 0.00 0.00 65 1006.0
20260504234003 13 0 0.0 0.0 0.00 0.00 0.00 66 1005.9
20260504233503 13 265 0.0 1.6 0.00 0.00 0.00 66 1005.8
20260504233003 13 265 0.0 3.2 0.00 0.00 0.00 66 1005.8
20260504232503 13 265 0.0 3.2 0.00 0.00 0.00 64 1005.7
20260504232024 13 265 0.0 3.2 0.00 0.00 0.00 64 1005.6
20260504231503 14 265 0.0 3.2 0.00 0.00 0.00 63 1005.7
20260504231003 14 265 0.0 3.2 0.00 0.00 0.00 60 1005.6
20260504230503 15 265 1.6 9.7 0.00 0.00 0.00 60 1005.6
20260504230003 15 265 3.2 9.7 0.00 0.00 0.00 60 1005.5
20260504225503 15 265 3.2 6.4 0.00 0.00 0.00 60 1005.5
20260504225003 15 260 3.2 8.0 0.00 0.00 0.00 60 1005.5
20260504224524 15 261 3.2 9.7 0.00 0.00 0.00 59 1005.3
20260504224003 15 270 4.8 14.5 0.00 0.00 0.00 59 1005.3
20260504223503 15 268 6.4 14.5 0.00 0.00 0.00 58 1005.3
20260504223003 15 265 4.8 12.9 0.00 0.00 0.00 60 1005.2
20260504222503 15 261 6.4 17.7 0.00 0.00 0.00 59 1005.1
20260504222003 15 253 8.0 20.9 0.00 0.00 0.00 57 1005.1
20260504221503 15 242 9.7 20.9 0.00 0.00 0.00 57 1005.2
20260504221003 15 237 11.3 19.3 0.00 0.00 0.00 56 1005.1
20260504220503 15 240 11.3 25.7 0.00 0.00 0.00 57 1005.3
20260504220024 16 241 14.5 25.7 0.00 0.00 0.00 56 1005.3
20260504215524 15 246 14.5 32.2 0.00 0.00 0.00 56 1005.3
20260504215003 15 258 11.3 27.4 0.00 0.00 0.00 57 1005.2
20260504214503 16 252 14.5 30.6 0.00 0.00 0.00 56 1005.1
20260504214003 16 249 16.1 30.6 0.00 0.00 0.00 55 1004.9
20260504213503 16 248 16.1 32.2 0.00 0.00 0.00 55 1004.9
20260504213003 16 249 17.7 32.2 0.00 0.00 0.00 55 1004.9
20260504212503 16 250 17.7 32.2 0.00 0.00 0.00 55 1004.8
20260504212003 16 247 17.7 32.2 0.00 0.00 0.00 54 1004.9
20260504211503 16 250 16.1 30.6 0.00 0.00 0.00 53 1004.7
20260504211003 16 251 16.1 30.6 0.00 0.00 0.00 54 1004.7
20260504210503 17 248 14.5 30.6 0.00 0.00 0.00 55 1004.7
20260504210004 16 244 12.9 30.6 0.00 0.00 0.00 55 1004.6
20260504205503 16 245 14.5 30.6 0.00 0.00 0.00 57 1004.7
20260504205024 16 243 16.1 32.2 0.00 0.00 0.00 56 1004.6
20260504204503 16 247 16.1 32.2 0.00 0.00 0.00 55 1004.6
20260504204003 16 248 17.7 37.0 0.00 0.00 0.00 56 1004.5
20260504203524 16 249 19.3 37.0 0.00 0.00 0.00 56 1004.5
20260504203003 16 252 14.5 32.2 0.00 0.00 0.00 56 1004.3
20260504202503 16 251 16.1 45.1 0.00 0.00 0.00 57 1004.4
20260504202003 16 250 19.3 45.1 0.00 0.00 0.00 57 1004.5
20260504201503 16 245 16.1 32.2 0.00 0.00 0.00 58 1004.6
20260504201003 16 247 17.7 30.6 0.00 0.00 0.00 59 1004.5
20260504200503 15 245 16.1 30.6 0.00 0.00 0.00 60 1004.4
20260504200024 15 236 12.9 22.5 0.00 0.03 0.00 61 1004.4
20260504195503 15 229 12.9 24.1 0.00 0.03 0.00 60 1004.3
20260504195003 15 231 14.5 24.1 0.00 0.03 0.00 60 1004.3
20260504194503 15 239 14.5 29.0 0.00 0.05 0.00 60 1004.4
20260504194003 15 239 16.1 29.0 0.00 0.05 0.00 60 1004.4
20260504193503 15 238 17.7 30.6 0.00 0.05 0.00 60 1004.4
20260504193003 15 240 19.3 37.0 0.00 0.05 0.00 60 1004.4
20260504192503 16 237 19.3 37.0 0.00 0.05 0.00 59 1004.4
20260504192003 16 232 17.7 30.6 0.00 0.05 0.00 60 1004.4
20260504191503 16 237 16.1 30.6 0.00 0.08 0.00 59 1004.5
20260504191024 16 239 14.5 30.6 0.00 0.08 0.00 60 1004.5
20260504190504 15 234 16.1 32.2 0.00 0.08 0.00 63 1004.5
20260504190003 14 233 17.7 37.0 0.00 0.08 0.00 62 1004.5
20260504185503 14 233 19.3 40.2 0.00 0.10 0.00 63 1004.5
20260504185003 14 233 20.9 40.2 0.00 0.10 0.00 62 1004.6
20260504184503 14 233 19.3 37.0 0.00 0.10 0.00 61 1004.6
20260504184003 14 233 17.7 40.2 0.00 0.13 0.00 61 1004.8
20260504183503 14 235 17.7 40.2 0.00 0.13 0.00 63 1004.7
20260504183003 14 232 20.9 41.8 0.00 0.13 0.00 61 1004.8
20260504182503 15 233 20.9 41.8 0.00 0.15 0.00 60 1004.8
20260504182003 15 238 17.7 32.2 0.00 0.15 0.00 62 1004.8
20260504181503 14 237 16.1 33.8 0.00 0.18 0.00 63 1004.9
20260504181003 14 235 16.1 33.8 0.00 0.18 0.00 62 1005.0
20260504180503 13 232 11.3 32.2 0.00 0.18 0.00 63 1005.0
20260504180003 13 228 9.7 19.3 0.00 0.20 0.00 64 1005.1
20260504175503 13 231 12.9 29.0 0.00 0.20 0.00 66 1005.2
20260504175003 13 234 17.7 32.2 0.00 0.23 0.00 64 1005.3
20260504174503 12 236 16.1 32.2 0.00 0.23 0.00 64 1005.4
20260504174003 12 236 14.5 27.4 0.00 0.23 0.00 64 1005.5
20260504173503 12 237 16.1 29.0 0.00 0.25 0.00 63 1005.2
20260504173003 13 233 12.9 29.0 0.00 0.25 0.00 61 1005.2
20260504172524 13 227 9.7 20.9 0.00 0.28 0.00 62 1005.1
20260504172024 13 229 11.3 22.5 0.00 0.28 0.00 59 1005.0
20260504171503 13 228 9.7 22.5 0.00 0.30 0.00 60 1005.1
20260504171024 13 210 8.0 19.3 0.00 0.30 0.00 60 1005.0
20260504170503 13 204 9.7 19.3 0.00 0.33 0.00 59 1004.9